Location: Nag� el Ma?a??a
(24.0667°N, 32.8833°E)
Time: 23:30:54
(UTC+00:00)

SJ 16-02 - Pass Details

Date: 30 January 2022
Orbit: 605 x 615 km, 75.0° (Epoch: 17 May)

Event Time Altitude Azimuth Distance (km) Brightness Sun altitude
Rises 02:30:29 0° 16° (NNE) 2,883 4.9 -27.5°
Reaches altitude 10° 02:34:36 10° 54° (NE) 1,974 4.5 -26.5°
Maximum altitude 02:35:42 11° 69° (ENE) 1,918 4.6 -26.3°
Drops below altitude 10° 02:36:49 10° 83° (E) 1,971 4.9 -26.0°
Sets 02:40:54 0° 121° (ESE) 2,870 5.9 -25.1°
